29/04/2024 03:15:00,0.601
29/04/2024 03:30:00,0.601
29/04/2024 03:45:00,0.601
29/04/2024 04:00:00,0.601
29/04/2024 04:15:00,0.601
29/04/2024 04:30:00,0.601
29/04/2024 04:45:00,0.6
29/04/2024 05:00:00,0.6
29/04/2024 05:15:00,0.6
29/04/2024 05:30:00,0.6
29/04/2024 05:45:00,0.6
29/04/2024 06:00:00,0.6
29/04/2024 06:15:00,0.6
29/04/2024 06:30:00,0.6
29/04/2024 06:45:00,0.6
29/04/2024 07:00:00,0.6
29/04/2024 07:15:00,0.601
29/04/2024 07:30:00,0.601
29/04/2024 07:45:00,0.6
29/04/2024 08:00:00,0.6
29/04/2024 08:15:00,0.6
29/04/2024 08:30:00,0.6
29/04/2024 08:45:00,0.6
29/04/2024 09:00:00,0.6
29/04/2024 09:15:00,0.601
29/04/2024 09:30:00,0.602
29/04/2024 09:45:00,0.602
29/04/2024 10:00:00,0.601
29/04/2024 10:15:00,0.601
29/04/2024 10:30:00,0.601
29/04/2024 10:45:00,0.601
29/04/2024 11:00:00,0.602
29/04/2024 11:15:00,0.602
29/04/2024 11:30:00,0.602
29/04/2024 11:45:00,0.602
29/04/2024 12:00:00,0.602
29/04/2024 12:15:00,0.602
29/04/2024 12:30:00,0.602
29/04/2024 12:45:00,0.604
29/04/2024 13:00:00,0.604
29/04/2024 13:15:00,0.604
29/04/2024 13:30:00,0.604
29/04/2024 13:45:00,0.606
29/04/2024 14:00:00,0.606
29/04/2024 14:15:00,0.607
29/04/2024 14:30:00,0.607
29/04/2024 14:45:00,0.607
29/04/2024 15:00:00,0.607
29/04/2024 15:15:00,0.607
29/04/2024 15:30:00,0.607
29/04/2024 15:45:00,0.609
29/04/2024 16:00:00,0.609
29/04/2024 16:15:00,0.609
29/04/2024 16:30:00,0.61
29/04/2024 16:45:00,0.61
29/04/2024 17:00:00,0.611
29/04/2024 17:15:00,0.612
29/04/2024 17:30:00,0.613
29/04/2024 17:45:00,0.615
29/04/2024 18:00:00,0.616
29/04/2024 18:15:00,0.617
29/04/2024 18:30:00,0.617
29/04/2024 18:45:00,0.619
29/04/2024 19:00:00,0.62
29/04/2024 19:15:00,0.621
29/04/2024 19:30:00,0.623
29/04/2024 19:45:00,0.624
29/04/2024 20:00:00,0.627
29/04/2024 20:15:00,0.63
29/04/2024 20:30:00,0.631
29/04/2024 20:45:00,0.634
29/04/2024 21:00:00,0.639
29/04/2024 21:15:00,0.642
29/04/2024 21:30:00,0.646
29/04/2024 21:45:00,0.652
29/04/2024 22:00:00,0.658
29/04/2024 22:15:00,0.663
29/04/2024 22:30:00,0.67
29/04/2024 22:45:00,0.677
29/04/2024 23:00:00,0.688
29/04/2024 23:15:00,0.698
29/04/2024 23:30:00,0.709
29/04/2024 23:45:00,0.72
30/04/2024 00:00:00,0.73
30/04/2024 00:15:00,0.741
30/04/2024 00:30:00,0.753
30/04/2024 00:45:00,0.764
30/04/2024 01:00:00,0.775
30/04/2024 01:15:00,0.784
30/04/2024 01:30:00,0.793
30/04/2024 01:45:00,0.797
30/04/2024 02:00:00,0.805
30/04/2024 02:15:00,0.811
30/04/2024 02:30:00,0.816
30/04/2024 02:45:00,0.823
30/04/2024 03:00:00,0.827
30/04/2024 03:15:00,0.834
30/04/2024 03:30:00,0.838
30/04/2024 03:45:00,0.843
30/04/2024 04:00:00,0.846
30/04/2024 04:15:00,0.848
30/04/2024 04:30:00,0.85
30/04/2024 04:45:00,0.85
30/04/2024 05:00:00,0.85
30/04/2024 05:15:00,0.85
30/04/2024 05:30:00,0.848
30/04/2024 05:45:00,0.847
30/04/2024 06:00:00,0.844
30/04/2024 06:15:00,0.841
30/04/2024 06:30:00,0.838
30/04/2024 06:45:00,0.836
30/04/2024 07:00:00,0.833
30/04/2024 07:15:00,0.829
30/04/2024 07:30:00,0.826
30/04/2024 07:45:00,0.823
30/04/2024 08:00:00,0.819
30/04/2024 08:15:00,0.816
30/04/2024 08:30:00,0.814
30/04/2024 08:45:00,0.809
30/04/2024 09:00:00,0.806
30/04/2024 09:15:00,0.805
30/04/2024 09:30:00,0.801
30/04/2024 09:45:00,0.797
30/04/2024 10:00:00,0.794
30/04/2024 10:15:00,0.793
30/04/2024 10:30:00,0.79
30/04/2024 10:45:00,0.786
30/04/2024 11:00:00,0.784
30/04/2024 11:15:00,0.782
30/04/2024 11:30:00,0.78
30/04/2024 11:45:00,0.776
30/04/2024 12:00:00,0.774
30/04/2024 12:15:00,0.772
30/04/2024 12:30:00,0.77
30/04/2024 12:45:00,0.769
30/04/2024 13:00:00,0.767
30/04/2024 13:15:00,0.764
30/04/2024 13:30:00,0.764
30/04/2024 13:45:00,0.76
30/04/2024 14:00:00,0.759
30/04/2024 14:15:00,0.757
30/04/2024 14:30:00,0.754
30/04/2024 14:45:00,0.753
30/04/2024 15:00:00,0.751
30/04/2024 15:15:00,0.751
30/04/2024 15:30:00,0.749
30/04/2024 15:45:00,0.747
30/04/2024 16:00:00,0.745
30/04/2024 16:15:00,0.742
30/04/2024 16:30:00,0.741
30/04/2024 16:45:00,0.74
30/04/2024 17:00:00,0.739
30/04/2024 17:15:00,0.737
30/04/2024 17:30:00,0.736
30/04/2024 17:45:00,0.734
30/04/2024 18:00:00,0.732
30/04/2024 18:15:00,0.729
30/04/2024 18:30:00,0.728
30/04/2024 18:45:00,0.729
30/04/2024 19:00:00,0.729
30/04/2024 19:15:00,0.729
30/04/2024 19:30:00,0.726
30/04/2024 19:45:00,0.726
30/04/2024 20:00:00,0.724
30/04/2024 20:15:00,0.721
30/04/2024 20:30:00,0.72
30/04/2024 20:45:00,0.719
30/04/2024 21:00:00,0.718
30/04/2024 21:15:00,0.718
30/04/2024 21:30:00,0.716
30/04/2024 21:45:00,0.715
30/04/2024 22:00:00,0.714
30/04/2024 22:15:00,0.713
30/04/2024 22:30:00,0.711
30/04/2024 22:45:00,0.71
30/04/2024 23:00:00,0.708
30/04/2024 23:15:00,0.707
30/04/2024 23:30:00,0.707
30/04/2024 23:45:00,0.706
01/05/2024 00:00:00,0.705
01/05/2024 00:15:00,0.704
01/05/2024 00:30:00,0.703
01/05/2024 00:45:00,0.702
01/05/2024 01:00:00,0.7
01/05/2024 01:15:00,0.699
01/05/2024 01:30:00,0.698
01/05/2024 01:45:00,0.697
01/05/2024 02:00:00,0.696
01/05/2024 02:15:00,0.696
01/05/2024 02:30:00,0.695
01/05/2024 02:45:00,0.694
01/05/2024 03:00:00,0.693
01/05/2024 03:15:00,0.693
01/05/2024 03:30:00,0.691
01/05/2024 03:45:00,0.692
01/05/2024 04:00:00,0.716
01/05/2024 04:15:00,0.74
01/05/2024 04:30:00,0.751
01/05/2024 04:45:00,0.757
01/05/2024 05:00:00,0.758
01/05/2024 05:15:00,0.759
01/05/2024 05:30:00,0.759
01/05/2024 05:45:00,0.759
01/05/2024 06:00:00,0.759
01/05/2024 06:15:00,0.758
01/05/2024 06:30:00,0.758
01/05/2024 06:45:00,0.757
01/05/2024 07:00:00,0.757
01/05/2024 07:15:00,0.757
01/05/2024 07:30:00,0.756
01/05/2024 07:45:00,0.754
01/05/2024 08:00:00,0.754
01/05/2024 08:15:00,0.753
01/05/2024 08:30:00,0.753
01/05/2024 08:45:00,0.753
01/05/2024 09:00:00,0.752
01/05/2024 09:15:00,0.751
01/05/2024 09:30:00,0.751
01/05/2024 09:45:00,0.75
01/05/2024 10:00:00,0.75
01/05/2024 10:15:00,0.75
01/05/2024 10:30:00,0.749
01/05/2024 10:45:00,0.749
01/05/2024 11:00:00,0.749
01/05/2024 11:15:00,0.748
01/05/2024 11:30:00,0.747
01/05/2024 11:45:00,0.743
01/05/2024 12:00:00,0.74
01/05/2024 12:15:00,0.734
01/05/2024 12:30:00,0.725
01/05/2024 12:45:00,0.718
01/05/2024 13:00:00,0.707
01/05/2024 13:15:00,0.703
01/05/2024 13:30:00,0.698
01/05/2024 13:45:00,0.695
01/05/2024 14:00:00,0.691
01/05/2024 14:15:00,0.685
01/05/2024 14:30:00,0.683
01/05/2024 14:45:00,0.678
01/05/2024 15:00:00,0.676
01/05/2024 15:15:00,0.675
01/05/2024 15:30:00,0.675
01/05/2024 15:45:00,0.673
01/05/2024 16:00:00,0.671
01/05/2024 16:15:00,0.67
01/05/2024 16:30:00,0.667
01/05/2024 16:45:00,0.666
01/05/2024 17:00:00,0.664
01/05/2024 17:15:00,0.664
01/05/2024 17:30:00,0.663
01/05/2024 17:45:00,0.663
01/05/2024 18:00:00,0.662
01/05/2024 18:15:00,0.661
01/05/2024 18:30:00,0.66
01/05/2024 18:45:00,0.66
01/05/2024 19:00:00,0.659
01/05/2024 19:15:00,0.658
01/05/2024 19:30:00,0.658
01/05/2024 19:45:00,0.656
01/05/2024 20:00:00,0.656
01/05/2024 20:15:00,0.656
01/05/2024 20:30:00,0.655
01/05/2024 20:45:00,0.654
01/05/2024 21:00:00,0.654
01/05/2024 21:15:00,0.654
01/05/2024 21:30:00,0.654
01/05/2024 21:45:00,0.652
01/05/2024 22:00:00,0.652
01/05/2024 22:15:00,0.652
01/05/2024 22:30:00,0.652
01/05/2024 22:45:00,0.651
01/05/2024 23:00:00,0.65
01/05/2024 23:15:00,0.65
01/05/2024 23:30:00,0.65
01/05/2024 23:45:00,0.649
02/05/2024 00:00:00,0.648
02/05/2024 00:15:00,0.648
02/05/2024 00:30:00,0.646
02/05/2024 00:45:00,0.646
02/05/2024 01:00:00,0.646
02/05/2024 01:15:00,0.645
02/05/2024 01:30:00,0.645
02/05/2024 01:45:00,0.644
02/05/2024 02:00:00,0.644
02/05/2024 02:15:00,0.644
02/05/2024 02:30:00,0.643
02/05/2024 02:45:00,0.643
02/05/2024 03:00:00,0.642
02/05/2024 03:15:00,0.642
02/05/2024 03:30:00,0.642
02/05/2024 03:45:00,0.642
02/05/2024 04:00:00,0.642
02/05/2024 04:15:00,0.642
02/05/2024 04:30:00,0.641
02/05/2024 04:45:00,0.64
02/05/2024 05:00:00,0.64
02/05/2024 05:15:00,0.64
02/05/2024 05:30:00,0.64
02/05/2024 05:45:00,0.639
02/05/2024 06:00:00,0.639
02/05/2024 06:15:00,0.639
02/05/2024 06:30:00,0.638
02/05/2024 06:45:00,0.638
02/05/2024 07:00:00,0.637
02/05/2024 07:15:00,0.637
02/05/2024 07:30:00,0.637
02/05/2024 07:45:00,0.637
02/05/2024 08:00:00,0.637
02/05/2024 08:15:00,0.635
02/05/2024 08:30:00,0.635
02/05/2024 08:45:00,0.635
02/05/2024 09:00:00,0.634
02/05/2024 09:15:00,0.634
02/05/2024 09:30:00,0.634
02/05/2024 09:45:00,0.634
02/05/2024 10:00:00,0.634
02/05/2024 10:15:00,0.634
02/05/2024 10:30:00,0.634
02/05/2024 10:45:00,0.633
02/05/2024 11:00:00,0.633
02/05/2024 11:15:00,0.633
02/05/2024 11:30:00,0.633
02/05/2024 11:45:00,0.633
02/05/2024 12:00:00,0.633
02/05/2024 12:15:00,0.633
02/05/2024 12:30:00,0.632
02/05/2024 12:45:00,0.631
02/05/2024 13:00:00,0.631
02/05/2024 13:15:00,0.631
02/05/2024 13:30:00,0.631
02/05/2024 13:45:00,0.631
02/05/2024 14:00:00,0.631
02/05/2024 14:15:00,0.631
02/05/2024 14:30:00,0.631
02/05/2024 14:45:00,0.631
02/05/2024 15:00:00,0.631
02/05/2024 15:15:00,0.631
02/05/2024 15:30:00,0.63
02/05/2024 15:45:00,0.63
02/05/2024 16:00:00,0.63
02/05/2024 16:15:00,0.629
02/05/2024 16:30:00,0.629
02/05/2024 16:45:00,0.629
02/05/2024 17:00:00,0.628
02/05/2024 17:15:00,0.628
02/05/2024 17:30:00,0.628
02/05/2024 17:45:00,0.627
02/05/2024 18:00:00,0.627
02/05/2024 18:15:00,0.627
02/05/2024 18:30:00,0.627
02/05/2024 18:45:00,0.627
02/05/2024 19:00:00,0.627
02/05/2024 19:15:00,0.627
02/05/2024 19:30:00,0.626
02/05/2024 19:45:00,0.624
02/05/2024 20:00:00,0.624
02/05/2024 20:15:00,0.624
02/05/2024 20:30:00,0.623
02/05/2024 20:45:00,0.623
02/05/2024 21:00:00,0.623
02/05/2024 21:15:00,0.623
02/05/2024 21:30:00,0.623
02/05/2024 21:45:00,0.623
02/05/2024 22:00:00,0.623
02/05/2024 22:15:00,0.622
02/05/2024 22:30:00,0.622
02/05/2024 22:45:00,0.621
02/05/2024 23:00:00,0.621
02/05/2024 23:15:00,0.621
02/05/2024 23:30:00,0.621
02/05/2024 23:45:00,0.621
03/05/2024 00:00:00,0.62
03/05/2024 00:15:00,0.62
03/05/2024 00:30:00,0.62
03/05/2024 00:45:00,0.62
03/05/2024 01:00:00,0.62
03/05/2024 01:15:00,0.62
03/05/2024 01:30:00,0.62
03/05/2024 01:45:00,0.619
03/05/2024 02:00:00,0.619
03/05/2024 02:15:00,0.619
03/05/2024 02:30:00,0.619
03/05/2024 02:45:00,0.619
03/05/2024 03:00:00,0.619
03/05/2024 03:15:00,0.618
03/05/2024 03:30:00,0.618
03/05/2024 03:45:00,0.618
03/05/2024 04:00:00,0.617
03/05/2024 04:15:00,0.617
03/05/2024 04:30:00,0.617
03/05/2024 04:45:00,0.617
03/05/2024 05:00:00,0.617
03/05/2024 05:15:00,0.617
03/05/2024 05:30:00,0.617
03/05/2024 05:45:00,0.616
03/05/2024 06:00:00,0.616
03/05/2024 06:15:00,0.616
03/05/2024 06:30:00,0.615
03/05/2024 06:45:00,0.615
03/05/2024 07:00:00,0.613
03/05/2024 07:15:00,0.613
03/05/2024 07:30:00,0.613
03/05/2024 07:45:00,0.613
03/05/2024 08:00:00,0.613
03/05/2024 08:15:00,0.613
03/05/2024 08:30:00,0.613
03/05/2024 08:45:00,0.613
03/05/2024 09:00:00,0.613
03/05/2024 09:15:00,0.613
03/05/2024 09:30:00,0.613
03/05/2024 09:45:00,0.612
03/05/2024 10:00:00,0.612
03/05/2024 10:15:00,0.612
03/05/2024 10:30:00,0.612
03/05/2024 10:45:00,0.612
03/05/2024 11:00:00,0.611
03/05/2024 11:15:00,0.611
03/05/2024 11:30:00,0.611
03/05/2024 11:45:00,0.611
03/05/2024 12:00:00,0.615
03/05/2024 12:15:00,0.613
03/05/2024 12:30:00,0.613
03/05/2024 12:45:00,0.613
03/05/2024 13:00:00,0.617
03/05/2024 13:15:00,0.619
03/05/2024 13:30:00,0.619
03/05/2024 13:45:00,0.62
03/05/2024 14:00:00,0.621
03/05/2024 14:15:00,0.621
03/05/2024 14:30:00,0.622
03/05/2024 14:45:00,0.621
03/05/2024 15:00:00,0.621
03/05/2024 15:15:00,0.62
03/05/2024 15:30:00,0.62
03/05/2024 15:45:00,0.62
03/05/2024 16:00:00,0.62
03/05/2024 16:15:00,0.62
03/05/2024 16:30:00,0.621
03/05/2024 16:45:00,0.621
03/05/2024 17:00:00,0.621
03/05/2024 17:15:00,0.621
03/05/2024 17:30:00,0.622
03/05/2024 17:45:00,0.622
03/05/2024 18:00:00,0.622
03/05/2024 18:15:00,0.623
03/05/2024 18:30:00,0.623
03/05/2024 18:45:00,0.624
03/05/2024 19:00:00,0.627
03/05/2024 19:15:00,0.629
03/05/2024 19:30:00,0.631
03/05/2024 19:45:00,0.635
03/05/2024 20:00:00,0.64
03/05/2024 20:15:00,0.645
03/05/2024 20:30:00,0.652
03/05/2024 20:45:00,0.662
03/05/2024 21:00:00,0.673
03/05/2024 21:15:00,0.678
03/05/2024 21:30:00,0.685
03/05/2024 21:45:00,0.691
03/05/2024 22:00:00,0.693
03/05/2024 22:15:00,0.693
03/05/2024 22:30:00,0.693
03/05/2024 22:45:00,0.692
03/05/2024 23:00:00,0.689
03/05/2024 23:15:00,0.687
